User: anonymous   Login
Location: Unspecified
(0.0000°N, 0.0000°E)
Time: 14:30:24
(UTC+00:00)
Language:

ARIANE 5 DEB (SYLDA) - Orbit

View from above orbital plane
View from above orbital plane
View from above satellite
View from above satellite

Ground track
Ground track

The orbit data is extracted from the following two-line orbital elements,

1 38994U 12062D   16312.92316234  .66924520 -35588-4  13729-2 0  9999
2 38994   2.2010  46.1420 0206010  94.2107  52.8625 16.06904902 53024
Epoch (UTC): 07 November 2016 22:09:21
Eccentricity: 0.0206010
inclination: 2.2010°
perigee height: 119 km
apogee height: 392 km
right ascension of ascending node: 46.1420°
argument of perigee: 94.2107°
revolutions per day: 16.06904902
mean anomaly at epoch: 52.8625°
orbit number at epoch: 5302

The dashed part of the orbit path shows where the satellite is in the earth's shadow,  

DLR